Regional Weather Roundup
Issued by NWS

Home | Current Version | Previous Version | Graphics & Text | Print | Product List | Glossary On
Versions: 1 2 3 4 5 6 7 8 9 10 11 12 13 14 15 16 17 18 19 20 21 22 23 24 25 26 27 28 29 30 31 32 33 34 35 36 37 38 39 40 41 42 43 44 45 46 47 48 49 50
750
ASUS45 KSLC 231810
RWRUT

UTAH REGIONAL WEATHER ROUNDUP
NATIONAL WEATHER SERVICE SALT LAKE CITY UT
1200 PM MDT THU MAR 23 2017

UTZ001>011-023>025-231900-

NORTHERN UTAH

CITY           SKY/WX    TMP DP  RH WIND       PRES   REMARKS
BRIGHAM CITY     N/A     41  36  83 CALM      29.83R
DUGWAY         FLURRIES  41  37  85 NW14G20   29.87R
HILL AFB       LGT SNOW  36  34  93 N7        29.83R FOG     WCI  30
LOGAN          LGT RAIN  41  38  89 NW5       29.82R FOG
OGDEN          LGT RAIN  37  36  96 NW8       29.83R WCI  31
SALT LAKE CITY RAIN      39  35  86 NW14      29.85R WCI  31
WENDOVER       NOT AVBL
HEBER CITY     MIX PCPN  39  36  87 SW6       29.77R WCI  35

$$

UTZ011>015-024>027-231900-

CENTRAL/NORTHEAST UTAH

CITY           SKY/WX    TMP DP  RH WIND       PRES   REMARKS
PROVO AIRPORT  LGT RAIN  41  37  87 NW17      29.85R
MOAB/CANYONLAN PTSUNNY   54  33  45 W12       29.73F
DELTA          CLOUDY    32  32 100 S3        29.89R
PRICE          CLOUDY    42  40  92 E10       29.76S
RICHFIELD      PTSUNNY   43  37  81 S14       29.86R
ROOSEVELT      DRIZZLE   45  39  81 CALM      29.78S
VERNAL         MOSUNNY   50  41  71 W12       29.74F

$$

UTZ013>016-019>022-027-231900-

SOUTHERN UTAH

CITY           SKY/WX    TMP DP  RH WIND       PRES   REMARKS
BRYCE CANYON   FLURRIES  35  29  78 NW10      29.85R WCI  27
CEDAR CITY     CLOUDY    43  34  70 SW10      29.86R
MILFORD        LGT RAIN N/A N/A N/A N20       29.89R
ST GEORGE      CLOUDY    53  38  56 N3        29.91R
HANKSVILLE     CLOUDY    52  34  50 W13G20    29.78F
KANAB          PTSUNNY   45  39  81 W5        29.92R
BLANDING       CLOUDY    43  32  64 S7        29.89S

$$

REGIONAL REPORTS     COLORADO/ARIZONA

CITY           SKY/WX    TMP DP  RH WIND       PRES   REMARKS
CRAIG, CO      MOSUNNY   58  26  29 SW15G23   29.72F
GRAND JUNCTION CLOUDY    54  38  54 W3        29.74F
RIFLE, CO      CLOUDY    56  30  37 W24       29.72F
MONTROSE, CO   PTSUNNY   58  29  33 NE10G20   29.73F
CORTEZ, CO     CLOUDY    41  34  76 W17       29.82R
COLORADO CITY  LGT RAIN  48  36  61 NW12      29.92R
PAGE, AZ       PTSUNNY   49  50 100 N3        29.83R
GRAND CANYON   CLOUDY    36  32  85 SW12      29.91R WCI  28
KINGMAN, AZ    MOSUNNY   53  28  38 SW13G23   29.96R
FLAGSTAFF, AZ  LGT SNOW  32  30  92 S12       29.92S FOG     WCI  23

$$

REGIONAL REPORTS    NEVADA/IDAHO/WYOMING

CITY           SKY/WX    TMP DP  RH WIND       PRES   REMARKS
LAS VEGAS, NV  LGT RAIN  61  34  36 SW12      29.93R
ELY, NY        FLURRIES  35  33  92 W9        29.94R WCI  28
ELKO, NV       PTSUNNY   44  28  53 NW9       30.03R
POCATELLO, ID  CLOUDY    40  36  86 SW22      29.90S WCI  30
BURLEY, ID     CLOUDY    43  32  65 W20G36    29.91S
FORT BRIDGER,  CLOUDY    40  39  99 NW12      29.77R WCI  33
EVANSTON, WY   LGT SNOW  33  31  92 SW6       29.77R VSB 3/4 WCI  28
ROCK SPRINGS,  CLOUDY    45  36  70 SW13      29.73R
KEMMERER, WY   SNOW      34  32  93 W5        29.75R VSB<1/4 WCI  30

$$




USA.gov is the U.S. government's official web portal to all federal, state and local government web resources and services.